Find Starlink 35313

NORAD ID: 65758 Int'l Des: 2025-216 Owner: SPXS Country: US Constellation: starlink operational
LEOCIRCULAR

現在のビュー

3D地球を読み込み中...

Starlink 35313について

説明を読み込み中...

次回通過

Passes for default location (London). Set your location on the main map for personalized predictions.

高度履歴

Loading altitude history...

軌道要素

1 65758U 25216AA 26149.48164259 .00026012 00000-0 88631-3 0 9998
2 65758 53.1604 317.5819 0001184 91.0700 269.0436 15.30236172 38873
Epoch: May 29, 2026 • Age: 20 hours

現在のステータス

高度 477.2 km
速度 7.63 km/s
衛星直下点 -7.16°S, 143.47°E
打ち上げ日 Sep 25, 2025
運用期間 0.6 years
タイプ internet

技術仕様

分類 Payload
質量 575.00 kg
乾燥質量 530.00 kg
総質量 575.00 kg
長さ 0.30 m
直径 4.10 m
スパン 29.00 m
形状 Box + pan
製造者 SPXS
バスタイプ Starlink V2MO
フェーズステータス In Orbit
所有者/国 SPXS/US

Most Searched